Olney-Noble, IL

12:37 AM CST on January 19, 2018 (GMT -0600)
Olney-Noble

Weather History for KOLY - February, 2014

Change the Weather History Date:

Wednesday, February 12, 2014

  Actual Average (KEVV) Record (KEVV)
Temperature  
Mean Temperature 16 °F -  
Max Temperature 28 °F 41 °F 72 °F (1938)
Min Temperature 3 °F 24 °F -11 °F (1899)
Degree Days  
Heating Degree Days 50    
Moisture  
Dew Point 7 °F    
Average Humidity 69    
Maximum Humidity 85    
Minimum Humidity 55    
Precipitation  
Precipitation 0.00 in - - ()
Sea Level Pressure  
Sea Level Pressure 30.17 in    
Wind  
Wind Speed 2 mph (NNE)    
Max Wind Speed 7 mph    
Max Gust Speed -    
Visibility 10 miles    
Events      
Averages and records for this station are not official NWS values.
T = Trace of Precipitation, MM = Missing Value Source: NWS Daily Summary

Daily Weather History Graph

Daily Weather History Graph

Search for Another Location

Airport or City:

Trip Planner

Search our weather history database for the weather conditions in past years. The results will help you decide how hot, cold, wet, or windy it might be!

Date:

Astronomy

Feb. 12, 2014 Rise Set
Actual Time 6:47 AM CST 5:27 PM CST
Civil Twilight 6:19 AM CST 5:54 PM CST
Nautical Twilight 5:48 AM CST 6:25 PM CST
Astronomical Twilight 5:17 AM CST 6:56 PM CST
Moon 3:41 PM CST (2/12) 5:03 AM CST (2/12)
Length of Visible Light 11h 34m
Length of Day
10h 39m
Waxing Gibbous, 95% of the Moon is Illuminated
Feb 12
Waxing Gibbous
Feb 14
Full
Feb 22
Last Quarter
Mar 1
New
Mar 8
First Quarter

Hourly Weather History & Observations

Time (CST) Temp. Windchill Dew Point Humidity Pressure Visibility Wind Dir Wind Speed Gust Speed Precip Events Conditions
12:15 AM 5.0 °F -4.1 °F -0.4 °F 78% 30.36 in 10.0 mi NE 4.6 mph - N/A   Clear
12:35 AM 5.0 °F -4.1 °F -0.4 °F 78% 30.35 in 10.0 mi ENE 4.6 mph - N/A   Clear
12:55 AM 5.0 °F -2.1 °F -0.4 °F 78% 30.34 in 10.0 mi NE 3.5 mph - N/A   Clear
1:15 AM 5.0 °F - -0.4 °F 78% 30.34 in 10.0 mi Calm Calm - N/A   Clear
1:35 AM 5.0 °F -4.1 °F -0.4 °F 78% 30.33 in 10.0 mi NE 4.6 mph - N/A   Clear
1:55 AM 5.0 °F - -0.4 °F 78% 30.33 in 10.0 mi Calm Calm - N/A   Clear
2:15 AM 5.0 °F - -0.4 °F 78% 30.32 in 10.0 mi Calm Calm - N/A   Clear
2:35 AM 5.0 °F - -2.2 °F 72% 30.31 in 10.0 mi Calm Calm - N/A   Clear
2:55 AM 5.0 °F -4.1 °F -0.4 °F 78% 30.31 in 10.0 mi NNE 4.6 mph - N/A   Clear
3:15 AM 6.8 °F -2.0 °F -0.4 °F 72% 30.29 in 10.0 mi NE 4.6 mph - N/A   Clear
3:35 AM 6.8 °F -2.0 °F -0.4 °F 72% 30.29 in 10.0 mi NNE 4.6 mph - N/A   Clear
3:55 AM 6.8 °F -3.5 °F -0.4 °F 72% 30.28 in 10.0 mi NE 5.8 mph - N/A   Clear
4:15 AM 6.8 °F -0.1 °F -0.4 °F 72% 30.28 in 10.0 mi NNE 3.5 mph - N/A   Clear
4:35 AM 5.0 °F - -2.2 °F 72% 30.28 in 10.0 mi Calm Calm - N/A   Clear
4:55 AM 6.8 °F - -0.4 °F 72% 30.28 in 10.0 mi Calm Calm - N/A   Clear
5:15 AM 5.0 °F -2.1 °F -0.4 °F 78% 30.28 in 10.0 mi NE 3.5 mph - N/A   Clear
5:35 AM 3.2 °F -6.2 °F -0.4 °F 85% 30.27 in 10.0 mi ENE 4.6 mph - N/A   Clear
5:55 AM 5.0 °F -4.1 °F -0.4 °F 78% 30.27 in 10.0 mi NE 4.6 mph - N/A   Clear
6:15 AM 5.0 °F -4.1 °F -0.4 °F 78% 30.26 in 10.0 mi NE 4.6 mph - N/A   Clear
6:35 AM 5.0 °F -4.1 °F -0.4 °F 78% 30.26 in 10.0 mi NE 4.6 mph - N/A   Clear
6:55 AM 5.0 °F -4.1 °F -0.4 °F 78% 30.26 in 10.0 mi ENE 4.6 mph - N/A   Clear
7:15 AM 5.0 °F - -0.4 °F 78% 30.26 in 10.0 mi Calm Calm - N/A   Clear
7:35 AM 5.0 °F - -0.4 °F 78% 30.26 in 10.0 mi Calm Calm - N/A   Clear
7:55 AM 5.0 °F -4.1 °F 1.4 °F 85% 30.26 in 10.0 mi ENE 4.6 mph - N/A   Clear
8:15 AM 8.6 °F - 1.4 °F 73% 30.27 in 10.0 mi Calm Calm - N/A   Clear
8:35 AM 10.4 °F 2.2 °F 3.2 °F 73% 30.26 in 10.0 mi ENE 4.6 mph - N/A   Clear
8:55 AM 10.4 °F 4.0 °F 3.2 °F 73% 30.25 in 10.0 mi ENE 3.5 mph - N/A   Clear
9:15 AM 14.0 °F - 5.0 °F 67% 30.25 in 10.0 mi Calm Calm - N/A   Clear
9:35 AM 14.0 °F 8.2 °F 5.0 °F 67% 30.24 in 10.0 mi ENE 3.5 mph - N/A   Clear
9:55 AM 17.6 °F 10.7 °F 6.8 °F 63% 30.23 in 10.0 mi ENE 4.6 mph - N/A   Clear
10:15 AM 19.4 °F - 8.6 °F 63% 30.23 in 10.0 mi Calm Calm - N/A   Clear
10:35 AM 21.2 °F - 8.6 °F 58% 30.23 in 10.0 mi Calm Calm - N/A   Clear
10:55 AM 21.2 °F - 8.6 °F 58% 30.22 in 10.0 mi Calm Calm - N/A   Clear
11:15 AM 21.2 °F - 10.4 °F 63% 30.22 in 10.0 mi Calm Calm - N/A   Clear
11:35 AM 21.2 °F - 10.4 °F 63% 30.20 in 10.0 mi Calm Calm - N/A   Clear
11:55 AM 23.0 °F - 12.2 °F 63% 30.18 in 10.0 mi Calm Calm - N/A   Clear
12:15 PM 23.0 °F - 12.2 °F 63% 30.16 in 10.0 mi Calm Calm - N/A   Clear
12:35 PM 23.0 °F 17.0 °F 14.0 °F 68% 30.15 in 10.0 mi NW 4.6 mph - N/A   Clear
12:55 PM 26.6 °F - 14.0 °F 59% 30.13 in 10.0 mi Calm Calm - N/A   Clear
1:15 PM 26.6 °F - 14.0 °F 59% 30.12 in 10.0 mi Calm Calm - N/A   Clear
1:35 PM 28.4 °F - 15.8 °F 59% 30.12 in 10.0 mi Calm Calm - N/A   Clear
1:55 PM 28.4 °F - 14.0 °F 55% 30.11 in 10.0 mi Calm Calm - N/A   Clear
2:15 PM 28.4 °F - 14.0 °F 55% 30.10 in 10.0 mi Calm Calm - N/A   Clear
2:35 PM 28.4 °F 23.3 °F 17.6 °F 64% 30.09 in 10.0 mi NW 4.6 mph - N/A   Clear
2:55 PM 26.6 °F 21.2 °F 17.6 °F 69% 30.08 in 10.0 mi NW 4.6 mph - N/A   Clear
3:15 PM 28.4 °F 24.6 °F 17.6 °F 64% 30.08 in 10.0 mi NW 3.5 mph - N/A   Clear
3:35 PM 28.4 °F 23.3 °F 17.6 °F 64% 30.07 in 10.0 mi NW 4.6 mph - N/A   Clear
3:55 PM 28.4 °F 23.3 °F 15.8 °F 59% 30.07 in 10.0 mi NNW 4.6 mph - N/A   Clear
4:15 PM 26.6 °F - 15.8 °F 64% 30.06 in 10.0 mi Calm Calm - N/A   Clear
4:35 PM 26.6 °F 21.2 °F 15.8 °F 64% 30.06 in 10.0 mi NNW 4.6 mph - N/A   Clear
4:55 PM 26.6 °F - 14.0 °F 59% 30.05 in 10.0 mi Calm Calm - N/A   Clear
5:15 PM 24.8 °F - 14.0 °F 64% 30.06 in 10.0 mi Calm Calm - N/A   Clear
5:35 PM 26.6 °F 22.6 °F 14.0 °F 59% 30.05 in 10.0 mi North 3.5 mph - N/A   Clear
5:55 PM 24.8 °F - 14.0 °F 64% 30.06 in 10.0 mi Calm Calm - N/A   Clear
6:15 PM 26.6 °F - 12.2 °F 55% 30.06 in 10.0 mi Calm Calm - N/A   Clear
6:35 PM 23.0 °F - 14.0 °F 68% 30.06 in 10.0 mi Calm Calm - N/A   Clear
6:55 PM 21.2 °F - 14.0 °F 74% 30.07 in 10.0 mi Calm Calm - N/A   Clear
7:15 PM 21.2 °F - 12.2 °F 68% 30.07 in 10.0 mi Calm Calm - N/A   Clear
7:35 PM 21.2 °F - 12.2 °F 68% 30.07 in 10.0 mi Calm Calm - N/A   Clear
7:55 PM 17.6 °F - 10.4 °F 73% 30.08 in 10.0 mi Calm Calm - N/A   Clear
8:15 PM 15.8 °F 10.2 °F 10.4 °F 79% 30.08 in 10.0 mi North 3.5 mph - N/A   Clear
8:35 PM 17.6 °F 12.3 °F 10.4 °F 73% 30.07 in 10.0 mi North 3.5 mph - N/A   Clear
8:55 PM 19.4 °F 12.8 °F 10.4 °F 68% 30.06 in 10.0 mi NNE 4.6 mph - N/A   Clear
9:15 PM 21.2 °F 12.6 °F 10.4 °F 63% 30.05 in 10.0 mi NE 6.9 mph - N/A   Clear
9:35 PM 21.2 °F - 10.4 °F 63% 30.04 in 10.0 mi Calm Calm - N/A   Clear
9:55 PM 19.4 °F - 10.4 °F 68% 30.03 in 10.0 mi Calm Calm - N/A   Clear
10:15 PM 19.4 °F - 10.4 °F 68% 30.03 in 10.0 mi Calm Calm - N/A   Clear
10:35 PM 17.6 °F - 10.4 °F 73% 30.02 in 10.0 mi Calm Calm - N/A   Clear
10:55 PM 17.6 °F - 8.6 °F 68% 30.00 in 10.0 mi Calm Calm - N/A   Clear
11:15 PM 17.6 °F - 8.6 °F 68% 29.99 in 10.0 mi Calm Calm - N/A   Clear
11:35 PM 17.6 °F - 8.6 °F 68% 29.99 in 10.0 mi Calm Calm - N/A   Clear
11:55 PM 15.8 °F - 8.6 °F 73% 29.99 in 10.0 mi Calm Calm - N/A   Clear